Weather History for KQIR - March, 2012

Change the Weather History Date:

Sunday, March 25, 2012

  Actual Average Record
Temperature  
Mean Temperature 76 °F -  
Max Temperature 87 °F - - ()
Min Temperature 65 °F - - ()
Cooling Degree Days 11    
Growing Degree Days 26 (Base 50)    
Moisture  
Dew Point 40 °F    
Average Humidity 34    
Maximum Humidity 66    
Minimum Humidity 12    
Precipitation  
Precipitation 0.01 in - - ()
Sea Level Pressure  
Sea Level Pressure 30.01 in    
Wind  
Wind Speed 11 mph ()    
Max Wind Speed 17 mph    
Max Gust Speed -    
Visibility 5.7 miles    
Events      
T = Trace of Precipitation, MM = Missing Value Source: Averaged Metar Reports

Daily Weather History Graph

Daily Weather History Graph

Search for Another Location

Airport or City:

Trip Planner

Search our weather history database for the weather conditions in past years. The results will help you decide how hot, cold, wet, or windy it might be!

Date:

Astronomy

Mar. 25, 2012 Rise Set
Actual Time 5:33 AM AST 5:48 PM AST
Civil Twilight 5:10 AM AST 6:11 PM AST
Nautical Twilight 4:43 AM AST 6:37 PM AST
Astronomical Twilight 4:16 AM AST 7:04 PM AST
Moon 6:52 AM AST (3/25) 8:18 PM AST (3/25)
Length of Visible Light 13h 00m
Length of Day
12h 14m
Waxing Crescent, 7% of the Moon is Illuminated
Mar 25
Waxing Crescent
Mar 30
First Quarter
Apr 6
Full
Apr 13
Last Quarter
Apr 21
New

Hourly Weather History & Observations

Time (AST) Temp. Dew Point Humidity Pressure Visibility Wind Dir Wind Speed Gust Speed Precip Events Conditions
12:55 AM 68.9 °F 52.3 °F 55% 30.00 in 5.6 mi North 10.4 mph - N/A   Haze
1:55 AM 68.0 °F 52.5 °F 58% 30.00 in 5.6 mi NNW 11.5 mph - N/A   Haze
2:55 AM 66.4 °F 54.0 °F 64% 30.01 in 5.6 mi NNW 15.0 mph - N/A   Haze
3:55 AM 66.4 °F 53.4 °F 63% 30.01 in 5.6 mi NNW 12.7 mph - N/A   Haze
4:55 AM 65.5 °F 53.8 °F 66% 30.02 in 5.6 mi NNW 11.5 mph - N/A   Haze
5:55 AM 65.3 °F 52.2 °F 62% 30.05 in 5.6 mi NNW 11.5 mph - N/A   Haze
6:55 AM 66.6 °F 51.8 °F 59% 30.07 in 5.6 mi NNW 8.1 mph - N/A   Haze
7:55 AM 70.3 °F 51.1 °F 50% 30.09 in 5.6 mi NNW 17.3 mph - N/A   Haze
8:55 AM 75.4 °F 45.3 °F 34% 30.08 in 6.2 mi North 15.0 mph - N/A   Clear
9:55 AM 79.7 °F 39.7 °F 24% 30.06 in 5.6 mi North 13.8 mph - N/A   Haze
10:55 AM 83.1 °F 38.7 °F 21% 30.05 in 5.6 mi North 17.3 mph - N/A   Haze
11:55 AM 85.1 °F 34.7 °F 16% 30.02 in 5.6 mi NNE 13.8 mph - N/A   Haze
12:55 PM 87.1 °F 30.4 °F 13% 29.99 in 5.6 mi North 15.0 mph - N/A   Haze
1:55 PM 87.6 °F 29.7 °F 12% 29.97 in 5.6 mi North 15.0 mph - N/A   Haze
2:55 PM 87.3 °F 28.0 °F 12% 29.97 in 6.2 mi North 11.5 mph - N/A   Clear
3:55 PM 85.8 °F 29.5 °F 13% 29.96 in 5.6 mi NE 11.5 mph - N/A   Haze
4:55 PM 83.1 °F 30.2 °F 15% 29.96 in 5.6 mi NNE 12.7 mph - N/A   Haze
5:55 PM 80.4 °F 30.6 °F 16% 29.96 in 5.6 mi North 13.8 mph - N/A   Haze
6:55 PM 77.9 °F 23.7 °F 13% 29.96 in 6.2 mi North 10.4 mph - N/A   Clear
7:55 PM 76.1 °F 28.8 °F 18% 29.98 in 6.2 mi North 11.5 mph - N/A   Scattered Clouds
8:55 PM 74.3 °F 31.3 °F 21% 29.99 in 6.2 mi North 10.4 mph - N/A   Mostly Cloudy